SCP
1 1 1 0 0 0 0 0 0 0 0 0 0 0 0 0 0 0 0 0 0 0 0 0 0 0 0 0 0 0 0 0 0 0 0 0 0 0 0 0 0 0 0
0 0 0 0 0 0 0 0 0 0 0 0 0 0 0 0 0 0 0 0 0 -0 0 0 0 0 0 0 0 0 0 0 0 0 0 0 0 0 0 0 0 0 0
0 0 0 0 0 0 0 0 0 0 0 0 0 0 0 0 0 0 0 0 0 0 0 0 0 0 0 0 0 0 0 0 0 0 0 0 0 0 0 0 0 0 0
0 0 0 0 0 0 0 0 0 0 0 0 0 0 0 0 0 0 0 0 0 0 0 0 0 0 0 0 0 0 0 0 0 -0 0 0 0 0 0 0 0 0 0
0 0 0 0 0 0 0 0 0 0 0 0 0 0 0 0 0 0 0 0 0 0 -0 0 0 -0 -0 -0 -0 0 0 0 0 0 0 0 0 0 0 0 0 0 0
0 0 0 0 0 0 0 0 0 0 0 0 0 0 0 0 0 0 0 0 0 0 -0 0 0 0 0 0 0 -0 0 0 0 0 0 0 0 0 0 0 0 0 0
0 0 0 0 0 0 0 0 0 0 0 0 0 0 0 0 0 0 0 0 0 0 0 0 0 0 0 -0 -0 -0 0 0 0 0 0 0 0 0 0 0 0 0 0
0 0 0 0 0 0 0 0 0 0 0 0 0 0 0 0 0 0 0 0 0 0 0 0 0 0 -0 -0 0 0 0 0 0 0 0 0 0 0 0 0 0 0 0
0 0 0 0 0 0 0 0 0 0 0 0 0 0 0 0 0 0 0 0 0 0 0 0 0 0 0 0 0 0 0 0 0 0 0 0 0 0 0 0 0 0 0
0 0 0 0 0 0 0 0 0 0 0 0 0 0 0 0 0 0 0 0 0 0 0 0 0 0 0 0 0 0 0 0 0 0 0 0 0 0 0 0 0 0 0
0 0 0 0 0 0 0 0 0 0 0 0 0 0 0 0 0 0 0 0 0 0 0 0 0 0 0 0 0 0 0 0 0 0 0 0 0 0 0 0 0 0 0
0 0 0 0 0 0 0 0 0 0 0 0 0 0 0 0 0 0 0 0 0 0 0 0 0 0 0 0 0 0 0 0 0 0 0 0 0 -0 -0 -0 0 0 0
0 0 0 0 0 0 0 0 0 0 0 0 0 0 0 0 0 0 0 0 0 0 0 0 0 0 0 0 0 0 0 0 0 0 0 -0 0 -0 -0 -0 -0 -0 0
0 0 0 0 0 0 0 0 0 0 0 0 0 0 0 0 0 0 0 -0 0 0 0 0 0 0 0 0 0 0 0 0 0 0 0 0 0 -0 -0 -0 -0 0 -0
0 0 0 0 0 0 0 0 0 0 0 0 0 0 0 0 0 0 0 0 0 0 0 0 0 0 0 0 0 0 0 0 0 0 0 0 0 -0 -0 0 0 -0 -0
0 0 0 0 0 0 0 0 0 0 0 0 0 0 0 0 0 0 0 0 0 0 0 0 0 0 0 0 0 0 0 0 0 0 0 0 0 0 -0 -0 -0 -0 0
0 0 0 0 0 0 0 0 0 0 0 0 0 0 0 0 0 0 0 0 0 0 0 0 0 0 0 0 0 0 0 0 0 0 0 0 0 0 0 -0 -0 -0 -0
0 0 0 0 0 0 0 0 0 0 0 0 0 0 0 0 0 0 0 0 0 0 0 0 0 0 0 0 0 0 0 0 0 0 0 0 0 0 0 0 0 -0 0
0 0 0 0 0 0 0 0 0 0 0 0 0 0 0 0 0 0 0 0 0 0 0 0 0 0 0 0 0 0 0 0 0 0 0 0 0 0 0 0 0 0 0
0 0 0 0 0 0 0 0 0 0 0 0 0 0 0 0 0 0 0 0 0 0 0 0 0 0 0 0 -0 -0 0 0 0 0 0 0 0 0 0 0 0 0 0
0 0 0 0 0 0 0 0 0 0 0 0 0 0 0 0 0 0 0 0 0 0 0 0 0 0 0 0 0 0 -0 0 0 0 0 0 0 0 0 0 0 0 0
0 0 0 0 0 0 0 0 0 0 0 0 0 0 0 0 0 0 0 0 0 0 0 0 0 0 0 0 0 0 0 0 0 0 0 0 0 0 0 0 0 0 0
0 0 0 0 0 0 0 0 0 0 0 0 0 0 0 0 0 0 0 0 0 0 0 0 0 0 0 0 0 0 0 0 0 0 0 0 0 0 0 0 0 0 0
0 0 0 0 0 0 0 0 0 0 0 0 0 0 0 0 0 0 0 0 0 0 0 0 0 0 0 0 0 0 0 0 0 0 0 0 0 0 0 0 0 0 0
0 0 0 0 0 0 0 0 0 0 0 0 0 0 0 0 0 0 0 0 0 0 0 0 0 0 0 0 0 0 0 0 0 0 0 0 0 0 0 -0 0 0 0
0 0 0 0 0 0 0 0 0 0 0 0 0 0 0 0 0 0 0 0 0 0 0 0 0 0 0 0 0 0 0 0 0 0 0 0 0 0 0 0 0 0 0
Wind_Speed_500mb
36 29 28 27 29 31 34 40 39 51 37 48 40 37 39 38 46 44 46 45 48 44 39 43 38 42 36 33 34 28 24 28 24 32 24 24 25 30 39 34 37 31 30
31 26 26 27 27 26 32 41 45 50 51 42 42 33 33 30 27 36 47 50 48 48 38 36 38 43 29 30 33 37 39 28 24 29 29 20 27 21 10 8 17 25 29
28 24 25 28 32 28 35 38 41 44 51 54 49 46 35 34 40 37 44 37 35 33 39 45 42 35 29 30 39 35 30 33 26 19 18 12 8 31 16 23 25 28 30
23 22 23 26 29 29 32 33 37 43 46 56 56 49 40 41 40 36 37 40 34 27 32 43 42 36 34 37 35 27 28 28 25 21 16 23 28 17 25 23 19 31 26
21 25 28 28 27 26 30 30 33 33 41 48 53 52 41 37 36 34 35 31 38 44 49 45 34 32 34 31 31 33 30 31 30 25 26 27 22 22 17 28 22 14 22
25 25 26 29 25 25 27 27 27 28 56 40 47 39 33 37 39 32 38 29 38 40 40 43 40 39 41 38 35 35 29 29 30 28 28 24 25 27 20 24 27 27 24
26 24 26 27 26 24 25 27 28 37 55 39 33 44 38 31 39 36 38 37 38 40 45 44 48 44 45 44 40 33 36 30 29 34 34 30 27 22 23 22 20 23 20
21 23 26 24 24 27 20 26 29 35 38 36 33 52 37 34 36 36 41 41 37 37 46 42 44 47 41 45 39 31 33 37 34 35 33 26 19 24 26 18 15 19 13
18 22 26 24 25 28 20 26 30 29 37 25 37 47 40 33 37 40 38 41 36 40 40 44 43 43 41 43 41 35 38 40 40 37 41 27 17 17 10 11 10 11 8
22 24 23 22 23 24 26 27 25 31 34 23 33 43 36 36 34 37 37 39 42 40 43 48 45 37 37 42 43 42 40 39 40 40 43 22 14 9 6 7 9 7 12
20 24 23 20 21 22 23 24 26 29 31 23 29 42 32 29 33 36 35 35 35 41 43 45 45 37 39 37 43 43 43 40 39 39 39 27 20 14 12 7 7 10 9
16 20 22 20 21 20 21 23 25 27 29 20 29 45 34 32 32 28 40 44 33 39 49 43 39 36 38 40 39 43 42 40 39 35 30 27 23 18 17 13 13 12 8
18 19 19 20 20 18 19 21 23 25 25 21 31 40 32 30 36 31 38 38 36 39 45 41 40 35 39 39 37 45 42 41 35 31 33 30 26 26 24 12 13 17 15
18 18 14 17 19 18 16 19 20 23 22 21 26 34 32 32 36 32 36 40 30 39 45 32 34 33 39 37 37 39 47 41 37 34 33 36 36 29 30 24 18 18 15
16 15 13 13 16 17 17 17 18 21 21 21 21 24 27 34 30 34 31 39 32 36 42 42 36 35 38 36 37 38 41 41 42 39 32 29 34 33 29 25 25 18 13
14 12 10 10 13 15 16 15 16 18 20 19 18 19 23 26 30 28 27 34 30 35 40 43 40 41 34 34 36 43 40 44 56 55 36 36 37 38 34 28 23 19 17
8 6 7 7 9 12 14 15 15 17 19 17 17 18 18 24 29 27 28 31 27 31 34 39 40 33 32 38 44 44 45 44 40 46 51 42 38 39 37 34 27 19 14
8 7 9 6 6 9 11 13 14 16 17 14 15 16 16 19 21 26 25 27 26 27 32 34 31 26 27 30 31 35 36 43 46 49 44 35 30 31 35 32 41 34 26
9 8 7 6 5 8 10 13 13 16 15 13 14 15 14 17 21 26 27 26 25 24 25 25 31 24 21 24 24 22 25 33 32 39 46 41 29 25 29 32 35 40 49
9 9 7 5 2 6 8 13 13 14 14 12 13 13 15 14 17 26 24 28 24 20 19 18 27 26 22 22 23 22 20 24 28 32 37 39 32 24 24 24 29 28 30
10 9 6 5 1 5 9 12 13 13 14 12 13 13 15 22 13 25 21 21 27 22 29 20 14 23 24 22 24 20 20 27 25 24 25 26 27 23 22 19 22 18 15
5 9 5 6 3 3 7 10 12 11 13 13 12 12 17 19 20 19 21 23 22 23 28 25 17 22 19 18 22 26 26 30 30 28 29 24 19 17 16 13 18 23 21
7 7 7 9 7 7 6 8 11 10 11 13 14 13 19 16 26 19 22 23 24 17 20 21 21 21 23 25 22 26 23 28 29 31 31 21 21 7 11 17 17 15 18
8 10 8 9 10 11 10 9 9 10 11 14 14 19 19 23 18 25 23 21 26 25 26 21 25 19 25 24 24 23 28 27 28 35 33 22 25 2 8 9 11 11 8
11 11 10 10 10 12 11 12 12 13 13 14 18 23 18 21 20 31 22 23 27 29 30 28 23 21 19 23 22 24 30 35 35 35 35 27 27 6 4 0 5 11 7
14 14 14 12 10 11 13 14 16 16 15 16 17 17 22 24 30 28 17 30 31 32 30 34 32 24 28 29 28 31 34 33 36 38 38 25 27 12 4 3 3 2 5
Wind_Direction_500mb
91 68 61 56 44 34 25 17 16 12 31 19 3 13 13 359 6 343 345 348 343 346 332 329 338 333 326 338 333 328 323 309 314 330 311 306 299 299 287 267 257 275 268
86 73 62 50 37 38 23 18 24 15 13 27 1 14 10 360 357 0 353 1 359 4 3 359 351 353 1 345 342 331 328 324 298 339 326 314 289 297 354 282 250 258 266
81 79 65 55 42 29 25 26 19 19 7 8 0 7 11 11 5 5 355 14 357 1 354 352 352 359 351 344 340 332 329 329 330 324 313 324 299 319 313 309 305 297 289
97 74 65 45 38 33 17 23 14 14 12 5 5 9 20 14 5 14 9 11 0 7 7 351 350 347 353 345 341 340 336 333 324 312 305 282 283 294 309 295 312 293 290
79 63 45 48 37 31 21 14 13 17 13 6 4 10 29 19 4 14 3 12 8 1 352 352 355 351 352 346 339 339 333 327 326 319 315 310 294 285 288 296 296 297 288
68 65 52 37 34 26 20 10 8 1 5 11 7 10 19 13 5 360 3 358 350 353 347 355 1 356 352 348 339 336 319 318 314 319 316 312 311 299 295 292 295 293 285
55 41 49 26 26 14 17 13 353 359 7 11 3 358 8 15 3 12 2 1 357 355 348 351 352 351 347 338 334 343 340 335 317 310 307 301 298 290 289 280 294 297 300
53 38 53 29 13 11 20 18 357 8 24 4 4 357 9 18 8 13 10 357 352 357 352 3 357 350 4 2 9 1 352 347 349 342 337 319 302 295 291 281 288 314 324
69 44 51 36 19 14 19 22 5 21 15 5 0 359 14 15 18 9 9 2 3 1 0 354 6 0 360 8 4 5 3 5 2 355 345 330 317 309 275 278 292 288 307
55 48 55 40 24 16 18 21 14 8 7 358 358 7 8 21 12 10 13 4 7 3 354 5 359 354 11 10 13 9 6 0 6 3 5 5 350 341 305 312 308 319 310
42 44 52 42 31 18 14 15 12 10 10 358 9 14 15 11 1 9 10 7 6 358 7 356 360 8 17 16 15 13 11 12 13 20 23 26 25 52 40 30 348 358 13
45 47 40 38 30 20 17 15 13 14 14 7 18 2 16 13 4 7 6 8 12 6 8 8 4 19 18 19 19 18 15 9 16 28 36 32 26 21 16 37 40 37 35
54 51 29 33 34 20 17 13 14 14 14 2 352 8 16 12 4 7 6 6 16 6 2 5 6 15 14 20 29 23 18 15 23 32 35 28 31 39 27 41 70 46 50
61 54 32 27 32 20 14 12 10 11 11 10 1 0 16 14 4 8 4 12 20 9 2 18 3 16 17 26 31 28 24 28 34 34 37 35 41 48 45 61 74 71 64
55 53 50 33 21 16 12 11 3 7 10 5 7 5 354 2 12 11 5 13 23 15 4 12 15 12 25 32 34 35 27 35 38 31 27 39 37 42 44 47 55 66 67
55 46 50 39 24 13 9 5 2 6 4 0 4 360 3 353 4 10 2 1 22 17 16 21 10 7 34 44 50 47 42 57 53 43 48 54 53 45 44 45 43 52 59
56 49 79 62 35 15 9 5 2 2 358 360 2 359 12 7 2 5 1 2 19 13 30 25 14 32 56 64 54 50 46 50 50 44 48 55 59 57 49 42 33 38 44
76 73 91 92 51 17 15 2 5 356 358 6 5 4 8 4 5 356 360 4 11 16 28 27 19 32 55 53 44 48 41 40 45 42 39 44 53 45 39 43 37 46 52
108 110 116 106 69 19 17 6 7 355 1 2 5 1 6 7 4 1 4 5 6 19 11 24 21 36 47 50 47 45 22 20 28 35 27 27 31 30 43 61 68 61 63
124 131 139 131 80 20 14 4 1 356 1 356 356 353 353 350 351 360 359 3 4 10 356 21 12 20 30 33 37 38 11 12 26 25 17 23 34 53 67 66 63 67 73
143 139 147 197 53 13 4 352 350 356 354 354 350 344 348 5 336 350 3 345 6 5 4 10 359 5 13 24 24 20 15 26 27 19 7 24 46 63 56 38 35 24 21
153 168 185 222 226 308 337 344 339 347 345 348 342 345 336 345 327 341 349 344 333 336 355 353 333 332 344 0 10 8 8 15 8 7 10 17 33 48 50 50 30 28 23
190 206 206 233 229 260 295 334 327 330 332 339 336 335 327 350 7 349 351 344 341 317 337 334 327 316 302 320 335 346 354 351 351 337 346 352 355 347 65 56 46 53 39
215 218 220 227 249 257 272 298 314 305 316 316 323 314 325 341 334 346 350 345 339 330 326 318 320 309 313 309 309 328 326 323 323 321 337 341 339 357 65 43 28 35 13
212 220 233 237 249 254 267 280 293 295 303 302 304 335 319 327 324 332 308 345 343 327 334 342 304 302 307 312 311 307 317 317 321 327 335 343 346 341 210 266 38 66 78
215 218 228 235 242 254 267 272 275 280 287 301 319 303 322 311 310 324 320 325 324 323 329 334 322 316 309 308 303 302 310 320 321 322 324 334 332 343 243 156 269 336 34
Wind_Speed_850mb
36 29 28 27 29 31 34 40 39 51 37 48 40 37 39 38 46 44 46 45 48 44 39 43 38 42 36 33 34 28 24 28 24 32 24 24 25 30 39 34 37 31 30
31 26 26 27 27 26 32 41 45 50 51 42 42 33 33 30 27 36 47 50 48 48 38 36 38 43 29 30 33 37 39 28 24 29 29 20 27 21 10 8 17 25 29
28 24 25 28 32 28 35 38 41 44 51 54 49 46 35 34 40 37 44 37 35 33 39 45 42 35 29 30 39 35 30 33 26 19 18 12 8 31 16 23 25 28 30
23 22 23 26 29 29 32 33 37 43 46 56 56 49 40 41 40 36 37 40 34 27 32 43 42 36 34 37 35 27 28 28 25 21 16 23 28 17 25 23 19 31 26
21 25 28 28 27 26 30 30 33 33 41 48 53 52 41 37 36 34 35 31 38 44 49 45 34 32 34 31 31 33 30 31 30 25 26 27 22 22 17 28 22 14 22
25 25 26 29 25 25 27 27 27 28 56 40 47 39 33 37 39 32 38 29 38 40 40 43 40 39 41 38 35 35 29 29 30 28 28 24 25 27 20 24 27 27 24
26 24 26 27 26 24 25 27 28 37 55 39 33 44 38 31 39 36 38 37 38 40 45 44 48 44 45 44 40 33 36 30 29 34 34 30 27 22 23 22 20 23 20
21 23 26 24 24 27 20 26 29 35 38 36 33 52 37 34 36 36 41 41 37 37 46 42 44 47 41 45 39 31 33 37 34 35 33 26 19 24 26 18 15 19 13
18 22 26 24 25 28 20 26 30 29 37 25 37 47 40 33 37 40 38 41 36 40 40 44 43 43 41 43 41 35 38 40 40 37 41 27 17 17 10 11 10 11 8
22 24 23 22 23 24 26 27 25 31 34 23 33 43 36 36 34 37 37 39 42 40 43 48 45 37 37 42 43 42 40 39 40 40 43 22 14 9 6 7 9 7 12
20 24 23 20 21 22 23 24 26 29 31 23 29 42 32 29 33 36 35 35 35 41 43 45 45 37 39 37 43 43 43 40 39 39 39 27 20 14 12 7 7 10 9
16 20 22 20 21 20 21 23 25 27 29 20 29 45 34 32 32 28 40 44 33 39 49 43 39 36 38 40 39 43 42 40 39 35 30 27 23 18 17 13 13 12 8
18 19 19 20 20 18 19 21 23 25 25 21 31 40 32 30 36 31 38 38 36 39 45 41 40 35 39 39 37 45 42 41 35 31 33 30 26 26 24 12 13 17 15
18 18 14 17 19 18 16 19 20 23 22 21 26 34 32 32 36 32 36 40 30 39 45 32 34 33 39 37 37 39 47 41 37 34 33 36 36 29 30 24 18 18 15
16 15 13 13 16 17 17 17 18 21 21 21 21 24 27 34 30 34 31 39 32 36 42 42 36 35 38 36 37 38 41 41 42 39 32 29 34 33 29 25 25 18 13
14 12 10 10 13 15 16 15 16 18 20 19 18 19 23 26 30 28 27 34 30 35 40 43 40 41 34 34 36 43 40 44 56 55 36 36 37 38 34 28 23 19 17
8 6 7 7 9 12 14 15 15 17 19 17 17 18 18 24 29 27 28 31 27 31 34 39 40 33 32 38 44 44 45 44 40 46 51 42 38 39 37 34 27 19 14
8 7 9 6 6 9 11 13 14 16 17 14 15 16 16 19 21 26 25 27 26 27 32 34 31 26 27 30 31 35 36 43 46 49 44 35 30 31 35 32 41 34 26
9 8 7 6 5 8 10 13 13 16 15 13 14 15 14 17 21 26 27 26 25 24 25 25 31 24 21 24 24 22 25 33 32 39 46 41 29 25 29 32 35 40 49
9 9 7 5 2 6 8 13 13 14 14 12 13 13 15 14 17 26 24 28 24 20 19 18 27 26 22 22 23 22 20 24 28 32 37 39 32 24 24 24 29 28 30
10 9 6 5 1 5 9 12 13 13 14 12 13 13 15 22 13 25 21 21 27 22 29 20 14 23 24 22 24 20 20 27 25 24 25 26 27 23 22 19 22 18 15
5 9 5 6 3 3 7 10 12 11 13 13 12 12 17 19 20 19 21 23 22 23 28 25 17 22 19 18 22 26 26 30 30 28 29 24 19 17 16 13 18 23 21
7 7 7 9 7 7 6 8 11 10 11 13 14 13 19 16 26 19 22 23 24 17 20 21 21 21 23 25 22 26 23 28 29 31 31 21 21 7 11 17 17 15 18
8 10 8 9 10 11 10 9 9 10 11 14 14 19 19 23 18 25 23 21 26 25 26 21 25 19 25 24 24 23 28 27 28 35 33 22 25 2 8 9 11 11 8
11 11 10 10 10 12 11 12 12 13 13 14 18 23 18 21 20 31 22 23 27 29 30 28 23 21 19 23 22 24 30 35 35 35 35 27 27 6 4 0 5 11 7
14 14 14 12 10 11 13 14 16 16 15 16 17 17 22 24 30 28 17 30 31 32 30 34 32 24 28 29 28 31 34 33 36 38 38 25 27 12 4 3 3 2 5
Wind_Direction_850mb
91 68 61 56 44 34 25 17 16 12 31 19 3 13 13 359 6 343 345 348 343 346 332 329 338 333 326 338 333 328 323 309 314 330 311 306 299 299 287 267 257 275 268
86 73 62 50 37 38 23 18 24 15 13 27 1 14 10 360 357 0 353 1 359 4 3 359 351 353 1 345 342 331 328 324 298 339 326 314 289 297 354 282 250 258 266
81 79 65 55 42 29 25 26 19 19 7 8 0 7 11 11 5 5 355 14 357 1 354 352 352 359 351 344 340 332 329 329 330 324 313 324 299 319 313 309 305 297 289
97 74 65 45 38 33 17 23 14 14 12 5 5 9 20 14 5 14 9 11 0 7 7 351 350 347 353 345 341 340 336 333 324 312 305 282 283 294 309 295 312 293 290
79 63 45 48 37 31 21 14 13 17 13 6 4 10 29 19 4 14 3 12 8 1 352 352 355 351 352 346 339 339 333 327 326 319 315 310 294 285 288 296 296 297 288
68 65 52 37 34 26 20 10 8 1 5 11 7 10 19 13 5 360 3 358 350 353 347 355 1 356 352 348 339 336 319 318 314 319 316 312 311 299 295 292 295 293 285
55 41 49 26 26 14 17 13 353 359 7 11 3 358 8 15 3 12 2 1 357 355 348 351 352 351 347 338 334 343 340 335 317 310 307 301 298 290 289 280 294 297 300
53 38 53 29 13 11 20 18 357 8 24 4 4 357 9 18 8 13 10 357 352 357 352 3 357 350 4 2 9 1 352 347 349 342 337 319 302 295 291 281 288 314 324
69 44 51 36 19 14 19 22 5 21 15 5 0 359 14 15 18 9 9 2 3 1 0 354 6 0 360 8 4 5 3 5 2 355 345 330 317 309 275 278 292 288 307
55 48 55 40 24 16 18 21 14 8 7 358 358 7 8 21 12 10 13 4 7 3 354 5 359 354 11 10 13 9 6 0 6 3 5 5 350 341 305 312 308 319 310
42 44 52 42 31 18 14 15 12 10 10 358 9 14 15 11 1 9 10 7 6 358 7 356 360 8 17 16 15 13 11 12 13 20 23 26 25 52 40 30 348 358 13
45 47 40 38 30 20 17 15 13 14 14 7 18 2 16 13 4 7 6 8 12 6 8 8 4 19 18 19 19 18 15 9 16 28 36 32 26 21 16 37 40 37 35
54 51 29 33 34 20 17 13 14 14 14 2 352 8 16 12 4 7 6 6 16 6 2 5 6 15 14 20 29 23 18 15 23 32 35 28 31 39 27 41 70 46 50
61 54 32 27 32 20 14 12 10 11 11 10 1 0 16 14 4 8 4 12 20 9 2 18 3 16 17 26 31 28 24 28 34 34 37 35 41 48 45 61 74 71 64
55 53 50 33 21 16 12 11 3 7 10 5 7 5 354 2 12 11 5 13 23 15 4 12 15 12 25 32 34 35 27 35 38 31 27 39 37 42 44 47 55 66 67
55 46 50 39 24 13 9 5 2 6 4 0 4 360 3 353 4 10 2 1 22 17 16 21 10 7 34 44 50 47 42 57 53 43 48 54 53 45 44 45 43 52 59
56 49 79 62 35 15 9 5 2 2 358 360 2 359 12 7 2 5 1 2 19 13 30 25 14 32 56 64 54 50 46 50 50 44 48 55 59 57 49 42 33 38 44
76 73 91 92 51 17 15 2 5 356 358 6 5 4 8 4 5 356 360 4 11 16 28 27 19 32 55 53 44 48 41 40 45 42 39 44 53 45 39 43 37 46 52
108 110 116 106 69 19 17 6 7 355 1 2 5 1 6 7 4 1 4 5 6 19 11 24 21 36 47 50 47 45 22 20 28 35 27 27 31 30 43 61 68 61 63
124 131 139 131 80 20 14 4 1 356 1 356 356 353 353 350 351 360 359 3 4 10 356 21 12 20 30 33 37 38 11 12 26 25 17 23 34 53 67 66 63 67 73
143 139 147 197 53 13 4 352 350 356 354 354 350 344 348 5 336 350 3 345 6 5 4 10 359 5 13 24 24 20 15 26 27 19 7 24 46 63 56 38 35 24 21
153 168 185 222 226 308 337 344 339 347 345 348 342 345 336 345 327 341 349 344 333 336 355 353 333 332 344 0 10 8 8 15 8 7 10 17 33 48 50 50 30 28 23
190 206 206 233 229 260 295 334 327 330 332 339 336 335 327 350 7 349 351 344 341 317 337 334 327 316 302 320 335 346 354 351 351 337 346 352 355 347 65 56 46 53 39
215 218 220 227 249 257 272 298 314 305 316 316 323 314 325 341 334 346 350 345 339 330 326 318 320 309 313 309 309 328 326 323 323 321 337 341 339 357 65 43 28 35 13
212 220 233 237 249 254 267 280 293 295 303 302 304 335 319 327 324 332 308 345 343 327 334 342 304 302 307 312 311 307 317 317 321 327 335 343 346 341 210 266 38 66 78
215 218 228 235 242 254 267 272 275 280 287 301 319 303 322 311 310 324 320 325 324 323 329 334 322 316 309 308 303 302 310 320 321 322 324 334 332 343 243 156 269 336 34